Location: Dodge City Community College Allied Health Building
(37.7772°N, 100.0364°W)
Time: 15:09:05
(UTC+00:00)

SL-27 R/B - Pass Details

Date: 08 December 2021
Orbit: 415 x 464 km, 74.7° (Epoch: 20 January)

Event Time Altitude Azimuth Distance (km) Brightness Sun altitude
Exits shadow 12:26:51 26° 315° (NW) 947 3.5 -14.7°
Maximum altitude 12:28:27 45° 257° (WSW) 634 2.7 -14.4°
Drops below altitude 10° 12:31:47 10° 183° (S) 1,577 5.3 -13.8°
Sets 12:33:53 0° 177° (S) 2,435 6.4 -13.4°
